sat.trackr.live / text

‹ back to catalog

COSMOS 2513

NORAD 41121 · 2015-075A

PAYLOAD ACTIVE UNKNOWN

§ Identity

Operator
Country
CIS
Launch date
2015-12-13
Launch site
TYMSC
Launch vehicle
Mass (kg)
RCS (m²)
3.36

Purposes: comms

External: N2YO · Heavens-Above · Gunter

§ Orbital elements

Epoch: 2026-09-19T08:48:01.416384Z

Period
1,436.09 min
Inclination
0.0472°
Eccentricity
0.0001317
Mean motion
1.00272089 rev/d
Perigee alt
35,781.0 km
Apogee alt
35,792.1 km
Semi-major
42,164.6 km
B*
0.0000e+0
RAAN
103.7067°
Arg perigee
103.1844°
Mean anomaly
3.6610°
Rev number
3,949

§ Raw data

COSMOS 25131 41121U 15075A   26262.36668306 -.00000143  00000+0  00000+0 0  99902 41121   0.0472 103.7067 0001317 103.1844   3.6610  1.00272089 39491

JSON: /api/v1/satellites/41121 · /tle

For live sub-satellite position, see the globe view (requires WebGL).

§ Visibility from observer

Set your observer location to see the next 7 days of passes ≥ 10°. The values pass through the URL so the page stays shareable.

No JS? Fill the form by hand. The geolocation button needs JavaScript.